Flag for Germany Weather past 2 weeks in Pinneberg, Schleswig-Holstein, Germany

Now
79 °F

Sunny.


Feels Like: 79 °F
Forecast: 61 / 84 °F
Wind: 15 mph from Southeast

Location: Hamburg-Fuhlsbuettel

Current Time: Aug 3, 2015 at 1:00:26 PM

Latest Report: Aug 3, 2015 at 12:20 PM


Visibility: 10 mi

Pressure: 30.04 "Hg

Humidity: 42%

Dew point: 54 °F

Location of PinnebergLocation

Historic Weather in Pinneberg — Graph

°F

Pinneberg temperature yesterday

Maximum temperature yesterday: 72 °F (at 1:20 PM)
Minimum temperature yesterday: 50 °F (at 4:50 AM)
Average temperature yesterday: 62 °F

Past Weeks' High & Low Weather Summary

 TemperatureHumidityPressure
High79 °F (Jul 22, 2:20 PM)100% (Jul 19, 9:50 PM)30.15 "Hg (Jul 19, 9:50 PM)
Low45 °F (Aug 1, 1:50 AM)36% (Jul 24, 4:50 PM)29.42 "Hg (Jul 25, 1:20 PM)
Average61 °F76%29.82 "Hg
* Reported Jul 19 11:20 AM — Aug 3 11:50 AM, Pinneberg, Weather by CustomWeather, © 2015

Note: Actual official high and low records may vary slightly from our data, if they occured in-between our weather recording intervals... More about our weather records

Advertising

Pinneberg weather history for previous 24 hours

 ConditionsComfort  
Time TempWeatherWind HumidityBarometerVisibility
11:50 AM
Mon, Aug 3
77 °FSunny.14 mph44%30.07 "Hg10 mi
11:20 AM75 °FPassing clouds.12 mph47%30.07 "HgN/A
10:50 AM73 °FPassing clouds.14 mph47%30.07 "HgN/A
10:20 AM72 °FPassing clouds.12 mph50%30.07 "HgN/A
9:50 AM70 °FSunny.12 mph53%30.07 "Hg10 mi
9:20 AM68 °FSunny.13 mph53%30.09 "Hg10 mi
8:50 AM66 °FPassing clouds.9 mph60%30.09 "HgN/A
8:20 AM63 °FSunny.10 mph68%30.09 "Hg10 mi
7:50 AM61 °FSunny.10 mph72%30.09 "Hg10 mi
7:20 AM61 °FPassing clouds.8 mph72%30.09 "HgN/A
6:50 AM57 °FPassing clouds.7 mph77%30.09 "HgN/A
6:20 AM57 °FPassing clouds.7 mph77%30.09 "HgN/A
5:50 AM54 °FClear.5 mph88%30.09 "Hg10 mi
5:20 AM52 °FClear.5 mph88%30.09 "Hg10 mi
4:50 AM54 °FPassing clouds.3 mph82%30.09 "HgN/A
4:20 AM54 °FClear.5 mph82%30.09 "Hg10 mi
3:50 AM55 °FClear.3 mph82%30.12 "Hg10 mi
3:20 AM55 °FPassing clouds.3 mph82%30.12 "HgN/A
2:50 AM54 °FClear.3 mph88%30.12 "Hg10 mi
2:20 AM55 °FClear.3 mph88%30.12 "Hg10 mi
1:50 AM55 °FClear.3 mph82%30.12 "Hg10 mi
1:20 AM55 °FClear.2 mph82%30.12 "Hg10 mi
12:50 AM57 °FClear.2 mph82%30.12 "Hg10 mi
12:20 AM57 °FClear.5 mph82%30.12 "Hg10 mi
11:50 PM
Sun, Aug 2
59 °FPassing clouds.3 mph77%30.15 "HgN/A
11:20 PM57 °FClear.1 mph82%30.15 "Hg10 mi
10:50 PM59 °FClear.1 mph77%30.12 "Hg10 mi
10:20 PM59 °FClear.No wind82%30.12 "Hg10 mi
9:50 PM61 °FSunny.3 mph77%30.12 "Hg10 mi
9:20 PM63 °FSunny.2 mph73%30.12 "Hg10 mi
8:50 PM64 °FPassing clouds.3 mph64%30.12 "HgN/A
8:20 PM68 °FSunny.6 mph53%30.12 "Hg10 mi
7:50 PM68 °FSunny.8 mph49%30.12 "Hg10 mi
7:20 PM70 °FSunny.9 mph46%30.12 "Hg10 mi
6:50 PM72 °FPassing clouds.5 mph41%30.12 "HgN/A
6:20 PM72 °FPassing clouds.8 mph44%30.12 "HgN/A
5:50 PM72 °FPassing clouds.8 mph50%30.12 "HgN/A
5:20 PM72 °FPassing clouds.8 mph47%30.12 "HgN/A
4:50 PM72 °FSunny.7 mph44%30.12 "Hg10 mi
4:20 PM72 °FPassing clouds.5 mph41%30.12 "HgN/A
3:50 PM72 °FPassing clouds.5 mph44%30.12 "HgN/A
3:20 PM72 °FPassing clouds.8 mph41%30.12 "HgN/A
2:50 PM72 °FPassing clouds.10 mph44%30.12 "HgN/A
2:20 PM72 °FPassing clouds.9 mph50%30.15 "HgN/A
1:50 PM72 °FPassing clouds.8 mph41%30.15 "HgN/A
1:20 PM72 °FPassing clouds.8 mph47%30.15 "HgN/A
Weather by CustomWeather, © 2015

See weather overviewHow to use our weather pages